EW6220 Weather Reports


Display with metric or nautical units.
time (UTC)temp
F
wind
direction
speed
MPH
gust
MPH
rain 1hr
in
rain 24hr
in
rain mn
in
humidity
%
barometer
mb
20260504044532 51 243 2.0 6.0 0.00 0.00 0.00 55 1009.8
20260504043030 51 155 0.0 6.0 0.00 0.00 0.00 55 1009.8
20260504041526 51 240 1.0 4.0 0.00 0.00 0.00 56 1009.8
20260504040024 52 176 1.0 6.0 0.00 0.00 0.00 55 1009.8
20260504034524 52 173 1.0 5.0 0.00 0.00 0.00 55 1009.9
20260504033022 52 219 1.0 4.0 0.00 0.00 0.00 56 1010.0
20260504031522 52 226 0.0 3.0 0.00 0.00 0.00 56 1010.1
20260504030021 52 264 3.0 6.0 0.00 0.00 0.00 55 1010.2
20260504024521 52 276 2.0 5.0 0.00 0.00 0.00 56 1010.2
20260504023021 51 266 1.0 5.0 0.00 0.00 0.00 57 1010.3
20260504021519 51 270 4.0 8.0 0.00 0.00 0.00 58 1010.6
20260504020023 50 338 2.0 6.0 0.00 0.00 0.00 61 1010.9
20260504014537 51 310 2.0 17.0 0.00 0.00 0.00 63 1010.9
20260504013018 53 349 3.0 7.0 0.00 0.00 0.00 52 1011.1
20260504011517 53 321 3.0 14.0 0.00 0.00 0.00 50 1010.7
20260504010016 53 335 3.0 12.0 0.00 0.00 0.00 49 1010.4
20260504004517 54 281 4.0 15.0 0.00 0.00 0.00 48 1010.7
20260504003015 54 282 8.0 21.0 0.00 0.00 0.00 46 1010.3
20260504001516 54 255 1.0 11.0 0.00 0.00 0.00 46 1010.1
20260504000032 54 283 3.0 12.0 0.00 0.00 0.00 45 1009.8
20260503234512 54 259 2.0 14.0 0.00 0.00 0.00 44 1009.7
20260503233011 54 231 2.0 16.0 0.00 0.00 0.00 44 1009.9
20260503231511 54 349 4.0 8.0 0.00 0.00 0.00 46 1010.2
20260503230009 54 307 2.0 8.0 0.00 0.00 0.00 46 1010.3
20260503224509 54 193 1.0 5.0 0.00 0.00 0.00 46 1010.1
20260503223008 54 269 1.0 6.0 0.00 0.00 0.00 45 1010.0
20260503221508 55 259 3.0 8.0 0.00 0.00 0.00 43 1009.9
20260503220007 55 276 5.0 11.0 0.00 0.00 0.00 41 1009.9
20260503214521 55 330 3.0 13.0 0.00 0.00 0.00 42 1010.0
20260503213002 55 333 1.0 5.0 0.00 0.00 0.00 43 1010.1
20260503211600 54 216 5.0 11.0 0.00 0.00 0.00 43 1010.2
20260503210100 54 293 4.0 8.0 0.00 0.00 0.00 42 1010.2
20260503204608 54 280 2.0 13.0 0.00 0.00 0.00 43 1010.3
20260503203101 53 339 3.0 15.0 0.00 0.00 0.00 43 1010.6
20260503201555 53 264 3.0 10.0 0.00 0.00 0.00 45 1010.8
20260503200052 53 302 3.0 11.0 0.00 0.00 0.00 46 1010.9
20260503194606 53 328 4.0 11.0 0.00 0.00 0.00 47 1011.0
20260503193047 53 311 3.0 12.0 0.00 0.00 0.00 45 1011.2
20260503191546 52 309 3.0 12.0 0.00 0.00 0.00 47 1011.3
20260503190056 53 329 1.0 12.0 0.00 0.00 0.00 44 1011.4
20260503184543 53 345 4.0 11.0 0.00 0.00 0.00 43 1011.3
20260503183045 51 307 3.0 11.0 0.00 0.00 0.00 44 1011.5
20260503181539 52 263 3.0 9.0 0.00 0.00 0.00 43 1011.9
20260503180038 52 287 4.0 10.0 0.00 0.00 0.00 43 1011.9
20260503174535 52 266 4.0 10.0 0.00 0.00 0.00 43 1012.1
20260503173051 51 228 3.0 10.0 0.00 0.00 0.00 43 1012.4
20260503171529 50 352 3.0 10.0 0.00 0.00 0.00 44 1012.5
20260503081506 37 283 0.0 2.0 0.00 0.00 0.00 81 1013.9
20260503071501 37 285 0.0 3.0 0.00 0.00 0.00 80 1013.8